Regional Weather Roundup
Issued by NWS

Home | Current Version | Previous Version | Graphics & Text | Print | Product List | Glossary On
Versions: 1 2 3 4 5 6 7 8 9 10 11 12 13 14 15 16 17 18 19 20 21 22 23 24 25 26 27 28 29 30 31 32 33 34 35 36 37 38 39 40 41 42 43 44 45 46 47 48 49 50
000
ASUS43 KOAX 081210
RWRNE

WEATHER ROUNDUP FOR NEBRASKA
NATIONAL WEATHER SERVICE OMAHA NE
600 AM CST THU DEC 08 2016

NOTES: SATELLITE DATA IS BEING USED TO AUGMENT CLOUD COVER ABOVE
       12000 FEET.
       "FAIR" INDICATES FEW OR NO CLOUDS BELOW 12,000 FEET WITH NO
       SIGNIFICANT WEATHER AND/OR OBSTRUCTIONS TO VISIBILITY.

  * THESE STATIONS DO NOT REPORT WEATHER SUCH AS RAIN...SNOW OR FOG.

NEZ001>004-019>022-054>056-081300-
NEBRASKA PANHANDLE

CITY           SKY/WX    TMP DP  RH WIND       PRES   REMARKS
SCOTTSBLUFF    CLOUDY    -9 -14  78 NW9       30.51S WCI -26
6HR MIN TEMP:  -9; 6HR MAX TEMP:  -2;

ALLIANCE       CLOUDY   -14 -19  79 W8        30.48R WCI -31
6HR MIN TEMP: -15; 6HR MAX TEMP:  -1;

CHADRON        CLEAR      0  -8  69 W8        30.55S WCI -14
6HR MIN TEMP:  -2; 6HR MAX TEMP:   2;

KIMBALL        CLOUDY   -13 -18  80 W7        30.42R WCI -29
SIDNEY         CLOUDY    -8 -14  74 W8        30.47S WCI -24
6HR MIN TEMP:  -8; 6HR MAX TEMP:  -3;

$$

NEZ057>060-069>072-079>082-081300-
SOUTHWEST NEBRASKA

CITY           SKY/WX    TMP DP  RH WIND       PRES   REMARKS
NORTH PLATTE   CLEAR      1  -5  75 W8        30.56S WCI -13
6HR MIN TEMP:   0; 6HR MAX TEMP:   6;

IMPERIAL       CLOUDY    -2 -10  69 NW12      30.54S WCI -20
6HR MIN TEMP:  -2; 6HR MAX TEMP:   3;

LEXINGTON      CLEAR      5  -2  73 NW12      30.57S WCI -10
MCCOOK         CLEAR     -2  -8  76 W6        30.58F WCI -14
6HR MIN TEMP:  -4; 6HR MAX TEMP:   4;

OGALLALA       CLEAR      2  -4  73 NW14      30.53F WCI -16
$$

NEZ005>010-023>029-035>040-094-081300-
NORTH CENTRAL NEBRASKA

CITY           SKY/WX    TMP DP  RH WIND       PRES   REMARKS
VALENTINE      MOCLDY     5  -5  63 NW12      30.56R WCI -11
6HR MIN TEMP:   4; 6HR MAX TEMP:   6;

AINSWORTH      CLOUDY     6  -1  72 NW17G24   30.53R WCI -13
BROKEN BOW     CLEAR      6  -2  69 NW18      30.53S WCI -13
6HR MIN TEMP:   6; 6HR MAX TEMP:   9;

O`NEILL        CLEAR      7   0  74 NW18G24   30.53R WCI -12
ORD            CLEAR      7  -3  64 NW21G28   30.54S WCI -13
6HR MIN TEMP:   7; 6HR MAX TEMP:  11;

THEDFORD       CLEAR      3  -3  75 NW9       30.54S WCI -12
$$

NEZ041-046>049-061>064-073>077-083>087-081300-
SOUTH CENTRAL NEBRASKA

CITY           SKY/WX    TMP DP  RH WIND       PRES   REMARKS
GRAND ISLAND   CLEAR      8   0  69 NW14      30.56R WCI  -8
6HR MIN TEMP:   8; 6HR MAX TEMP:  11;

AURORA         CLEAR      8   1  71 NW12      30.55R WCI  -7
HASTINGS       CLEAR      9  -1  64 NW20      30.56S WCI -10
6HR MIN TEMP:   9; 6HR MAX TEMP:  13;

HEBRON         CLEAR     11   3  71 NW7       30.59R WCI   0
HOLDREGE       CLEAR      7  -1  70 NW13      30.56R WCI -10
KEARNEY *      CLEAR      9  -2  61 NW14      30.56S WCI  -8
YORK           CLEAR      9   1  72 NW18G24   30.54S WCI -10
$$

NEZ011>018-030>034-042>045-081300-
NORTHEAST NEBRASKA

CITY           SKY/WX    TMP DP  RH WIND       PRES   REMARKS
NORFOLK        CLEAR      7  -1  70 NW15      30.52R WCI -10
6HR MIN TEMP:   7; 6HR MAX TEMP:  11;

ALBION         CLEAR      8  -1  69 NW16G22   30.54R WCI -10
BLAIR          PTCLDY    11   4  74 NW12G18   30.51R WCI  -3
FREMONT        CLEAR     10   4  77 W15       30.54R WCI  -7
TEKAMAH        CLEAR     11   3  70 NW23      30.53R WCI  -9
6HR MIN TEMP:  11; 6HR MAX TEMP:  14;

WAYNE          PTCLDY     9   3  77 NW18G26   30.51R WCI -10
$$

NEZ050>053-065>068-078-088>093-081300-
SOUTHEAST NEBRASKA

CITY           SKY/WX    TMP DP  RH WIND       PRES   REMARKS
LINCOLN        CLEAR     12   2  64 NW16      30.57R WCI  -5
6HR MIN TEMP:  12; 6HR MAX TEMP:  16;

OMAHA EPPLEY   PTCLDY    12   3  67 NW21      30.53R WCI  -7
6HR MIN TEMP:  12; 6HR MAX TEMP:  16;

BEATRICE       CLEAR     12   3  68 NW13      30.56R WCI  -3
FALLS CITY     CLEAR     13   5  70 NW10      30.55R WCI   0
6HR MIN TEMP:  13; 6HR MAX TEMP:  19;

NEBRASKA CITY  CLEAR     12   1  61 NW16      30.53R WCI  -4
PLATTSMOUTH    CLEAR     12   2  63 NW15      30.52R WCI  -4
$$

NEZ044-045-051>053-067-081300-
OMAHA AREA

CITY           SKY/WX    TMP DP  RH WIND       PRES   REMARKS
OMAHA EPPLEY   PTCLDY    12   3  67 NW21      30.53R WCI  -7
6HR MIN TEMP:  12; 6HR MAX TEMP:  16;

BLAIR          PTCLDY    11   4  74 NW12G18   30.51R WCI  -3
FREMONT        CLEAR     10   4  77 W15       30.54R WCI  -7
MILLARD        CLEAR     13   3  65 NW15G21   30.54R WCI  -3
OFFUTT AFB     CLEAR     12   4  70 NW16G24   30.53R WCI  -5
PLATTSMOUTH    CLEAR     12   2  63 NW15      30.52R WCI  -4
WAHOO          FAIR      11   2  68 NW18      30.54R WCI  -7
$$




USA.gov is the U.S. government's official web portal to all federal, state and local government web resources and services.